User: anonymous   Login
Location: *
(44.1392°N, 4.8079°E)
Time: 12:46:21
(UTC+00:00)
Language:

Cosmos 1125 Rocket - Orbit

View from above orbital plane
View from above orbital plane
View from above satellite
View from above satellite

Ground track
Ground track

The orbit data is extracted from the following two-line orbital elements,

1 11511U 79078B   21262.92438982  .00000052  00000-0  26355-4 0  9990
2 11511  74.0379 335.4470 0015948 203.4337 156.6091 14.36939164201777
Epoch (UTC): 19 September 2021 22:11:07
Eccentricity: 0.0015948
inclination: 74.0379°
perigee height: 757 km
apogee height: 780 km
right ascension of ascending node: 335.4470°
argument of perigee: 203.4337°
revolutions per day: 14.36939164
mean anomaly at epoch: 156.6091°
orbit number at epoch: 20177

The dashed part of the orbit path shows where the satellite is in the earth's shadow,  

DLR